This is the latest recevied weather packets stored in our database for station/object N5DGC. If no packets are shown the sender has not sent any weather packets the latest 1 day(s).
| Time | Temp. | Humidity | Pressure | Rain* | Wind** | Luminosity | Snow |
|---|---|---|---|---|---|---|---|
| 1777978658 | 13.89° C | 35% | 1231.1 hPa | 0 mm | 0.89 m/s, 53° | 0 W/m² | - |
| 1777978354 | 14.44° C | 35% | 1231.3 hPa | 0 mm | 0.89 m/s, 102° | 0 W/m² | - |
| 1777978051 | 14.44° C | 35% | 1231.2 hPa | 0 mm | 0.89 m/s, 67° | 0 W/m² | - |
| 1777977748 | 14.44° C | 34% | 1231.3 hPa | 0 mm | 0.89 m/s, 64° | 0 W/m² | - |
| 1777977445 | 14.44° C | 34% | 1231.4 hPa | 0 mm | 0.89 m/s, 75° | 0 W/m² | - |
| 1777977142 | 14.44° C | 34% | 1231.3 hPa | 0 mm | 0.45 m/s, 13° | 0 W/m² | - |
| 1777976840 | 13.89° C | 34% | 1231.2 hPa | 0 mm | 0.89 m/s, 69° | 0 W/m² | - |
| 1777976538 | 13.89° C | 34% | 1231.3 hPa | 0 mm | 0.45 m/s, 79° | 0 W/m² | - |
| 1777976236 | 14.44° C | 34% | 1231.3 hPa | 0 mm | 0.89 m/s, 68° | 0 W/m² | - |
| 1777975932 | 14.44° C | 34% | 1231.2 hPa | 0 mm | 0.45 m/s, 93° | 0 W/m² | - |
| 1777975628 | 14.44° C | 34% | 1231.3 hPa | 0 mm | 0.45 m/s, 82° | 0 W/m² | - |
| 1777975326 | 14.44° C | 33% | 1231.2 hPa | 0 mm | 0.89 m/s, 97° | 0 W/m² | - |
| 1777975021 | 14.44° C | 33% | 1230.8 hPa | 0 mm | 0.89 m/s, 82° | 0 W/m² | - |
| 1777974719 | 14.44° C | 33% | 1231.2 hPa | 0 mm | 0.45 m/s, 103° | 0 W/m² | - |
| 1777974414 | 14.44° C | 33% | 1231.1 hPa | 0 mm | 0.89 m/s, 73° | 0 W/m² | - |
| 1777974111 | 14.44° C | 33% | 1231 hPa | 0 mm | 0.89 m/s, 72° | 0 W/m² | - |
| 1777973808 | 14.44° C | 34% | 1231.2 hPa | 0 mm | 0.89 m/s, 61° | 0 W/m² | - |
| 1777973505 | 14.44° C | 34% | 1230.8 hPa | 0 mm | 0.45 m/s, 86° | 0 W/m² | - |
| 1777973202 | 14.44° C | 34% | 1230.8 hPa | 0 mm | 0.89 m/s, 117° | 0 W/m² | - |
| 1777972901 | 14.44° C | 34% | 1231.1 hPa | 0 mm | 0.89 m/s, 166° | 0 W/m² | - |
| 1777972597 | 14.44° C | 34% | 1231.2 hPa | 0 mm | 0.89 m/s, 122° | 0 W/m² | - |
| 1777972295 | 14.44° C | 34% | 1231.1 hPa | 0 mm | 0.89 m/s, 133° | 0 W/m² | - |
| 1777971993 | 14.44° C | 34% | 1231.2 hPa | 0 mm | 0.45 m/s, 89° | 0 W/m² | - |
| 1777971691 | 15° C | 33% | 1231.2 hPa | 0 mm | 0.45 m/s, 107° | 0 W/m² | - |
| 1777971388 | 15° C | 33% | 1231.2 hPa | 0 mm | 0 m/s | 0 W/m² | - |
* Rain latest hour (hover to see other rain measurements)
** Current wind speed in m/s (hover to see current wind gust speed)